Retour au catalogue

NOAA 17 DEB

ActifSSO
NORAD 48710·DEBRIS·🇺🇸 United States

Lancé Jun 24, 2002 depuis Vandenberg Space Force Base

Loading…

Prochains Passages (prochaines 24 heures)

TLE

FraisSource: Space-Track

Époque: Sep 14, 2026, 10:59 UTC

1 48710U 02032AT  26257.45777801  .00001345  00000-0  42727-3 0  9996
2 48710  98.8779 264.3040 0005010 259.0774 100.9850 14.41687115287793

Suivez NOAA 17 DEB en temps réel avec AllMySat

Download on the App Store